Location: Bush Observatory
(40.2653°N, 94.3194°W)
Time: 22:10:45
(UTC-05:00)

Iridium 13 - Visible Passes

Search period start: 31 March 2015 00:00
Search period end: 10 April 2015 00:00
Orbit: 776 x 779 km, 86.4° (Epoch: 31 March)

Date Brightness Start Highest point End Pass type
(mag) Time Alt. Az. Time Alt. Az. Time Alt. Az.
31 Mar 5.8 22:14:01 10° N 22:18:18 61° N 22:18:18 61° N visible
01 Apr 5.8 21:40:39 10° N 21:45:18 46° ENE 21:45:18 46° ENE visible
01 Apr 7.8 23:22:24 10° NW 23:25:48 19° WNW 23:25:48 19° WNW visible
02 Apr 6.5 21:07:39 10° NNE 21:11:55 26° ENE 21:12:18 26° E visible
02 Apr 6.9 22:48:02 10° NNW 22:52:45 34° W 22:52:49 34° W visible
03 Apr 7.2 20:35:21 10° NE 20:38:00 14° ENE 20:39:20 13° E visible
03 Apr 5.8 22:14:10 10° N 22:19:20 64° W 22:19:51 60° WSW visible
04 Apr 5.4 21:40:36 10° N 21:45:50 70° E 21:46:55 53° SE visible
04 Apr 8.1 23:23:33 10° NW 23:26:00 13° W 23:27:26 11° W visible
05 Apr 6.1 21:07:21 10° NNE 21:12:10 37° E 21:14:02 28° ESE visible
05 Apr 7.5 22:48:33 10° NNW 22:52:44 24° W 22:54:33 20° WSW visible
06 Apr 6.8 20:34:33 10° NNE 20:38:21 21° ENE 20:41:10 14° ESE visible
06 Apr 6.5 22:14:25 10° NNW 22:19:22 44° W 22:21:41 27° SW visible
07 Apr 5.5 21:40:40 10° N 21:45:55 82° W 21:48:52 26° S visible
08 Apr 5.6 21:07:13 10° N 21:12:20 54° E 21:16:06 18° SSE visible
08 Apr 8.0 22:49:19 10° NW 22:52:40 17° W 22:55:46 10° WSW visible
09 Apr 6.4 20:34:07 10° NNE 20:38:37 29° E 20:43:10 10° SE visible
09 Apr 7.2 22:14:48 10° NNW 22:19:21 30° W 22:23:48 10° SW visible
